Weather History for Minneapolis, MN

Change the Weather History Date:

Sunday, March 17, 2013

  Actual Average Record
Temperature  
Mean Temperature 19 °F 33 °F  
Max Temperature 29 °F 42 °F 80 °F (2012)
Min Temperature 9 °F 25 °F -8 °F (1941)
Degree Days  
Heating Degree Days 46 32  
Month to date heating degree days 661 602  
Since 1 July heating degree days 6195 6392  
Cooling Degree Days 0 0  
Month to date cooling degree days 0 0  
Year to date cooling degree days 0 0  
Moisture  
Dew Point 6 °F    
Average Humidity 57    
Maximum Humidity 68    
Minimum Humidity 46    
Precipitation  
Precipitation 0.00 in 0.07 in 0.89 in (1965)
Month to date precipitation 1.62 0.93  
Year to date precipitation 3.81 2.60  
Snow  
Snow 0.00 in 0.40 in 11.20 in (1965)
Month to date snowfall 10.7 6.8  
Since 1 July snowfall 46.2 48.5  
Snow Depth 6.00 in    
Sea Level Pressure  
Sea Level Pressure 30.16 in    
Wind  
Wind Speed 13 mph (East)    
Max Wind Speed 21 mph    
Max Gust Speed 24 mph    
Visibility 10 miles    
Events      
T = Trace of Precipitation, MM = Missing Value Source: NWS Daily Summary

Daily Weather History Graph

Daily Weather History Graph

Search for Another Location

Airport:

Trip Planner

Search our weather history database for the weather conditions in past years. The results will help you decide how hot, cold, wet, or windy it might be!

Date:

Astronomy

Mar. 17, 2013 Rise Set
Actual Time 7:21 AM CDT 7:21 PM CDT
Civil Twilight 6:51 AM CDT 7:51 PM CDT
Nautical Twilight 6:17 AM CDT 8:25 PM CDT
Astronomical Twilight 5:43 AM CDT 9:00 PM CDT
Moon 10:20 AM CDT (3/17) 12:44 AM CDT (3/17)
Length of Visible Light 12h 59m
Length of Day
12h 00m
Waxing Crescent, 31% of the Moon is Illuminated
Mar 17
Waxing Crescent
Mar 19
First Quarter
Mar 27
Full
Apr 2
Last Quarter
Apr 10
New

Hourly Weather History & Observations

Time (CDT) Temp. Windchill Dew Point Humidity Pressure Visibility Wind Dir Wind Speed Gust Speed Precip Events Conditions
12:53 AM 14.0 °F 2.0 °F 3.0 °F 62% 30.30 in 10.0 mi North 9.2 mph - N/A   Partly Cloudy
1:53 AM 12.9 °F -0.2 °F 1.9 °F 62% 30.31 in 10.0 mi North 10.4 mph - N/A   Scattered Clouds
2:53 AM 12.0 °F -1.3 °F 1.0 °F 61% 30.31 in 10.0 mi North 10.4 mph - N/A   Partly Cloudy
3:53 AM 10.9 °F 0.2 °F 1.0 °F 64% 30.30 in 10.0 mi NNE 6.9 mph - N/A   Scattered Clouds
4:53 AM 10.0 °F -1.9 °F -0.0 °F 64% 30.28 in 10.0 mi NNE 8.1 mph - N/A   Clear
5:53 AM 10.0 °F 0.4 °F -0.0 °F 64% 30.29 in 10.0 mi NE 5.8 mph - N/A   Clear
6:53 AM 10.0 °F -1.9 °F -0.9 °F 61% 30.29 in 10.0 mi NE 8.1 mph - N/A   Clear
7:53 AM 10.0 °F -2.9 °F -0.0 °F 64% 30.27 in 10.0 mi ENE 9.2 mph - N/A   Clear
8:53 AM 10.9 °F -4.1 °F -0.0 °F 61% 30.27 in 10.0 mi East 12.7 mph - N/A   Partly Cloudy
9:53 AM 12.9 °F -2.8 °F 1.0 °F 59% 30.27 in 10.0 mi ESE 15.0 mph - N/A   Partly Cloudy
10:53 AM 17.1 °F 4.3 °F 3.0 °F 54% 30.25 in 10.0 mi SE 11.5 mph - N/A   Partly Cloudy
11:53 AM 19.0 °F 4.5 °F 5.0 °F 54% 30.23 in 10.0 mi SE 16.1 mph - N/A   Partly Cloudy
12:53 PM 21.0 °F 7.6 °F 7.0 °F 55% 30.20 in 10.0 mi SSE 15.0 mph - N/A   Overcast
1:53 PM 23.0 °F 9.2 °F 8.1 °F 53% 30.16 in 10.0 mi SSE 17.3 mph - N/A   Overcast
2:53 PM 26.6 °F 14.3 °F 8.6 °F 47% 30.07 in 10.0 mi ESE 16.1 mph - N/A   Mostly Cloudy
3:53 PM 26.1 °F 14.0 °F 9.0 °F 49% 30.06 in 10.0 mi ESE 15.0 mph - N/A   Mostly Cloudy
4:53 PM 27.0 °F 15.2 °F 10.9 °F 51% 30.06 in 10.0 mi ESE 15.0 mph - N/A   Overcast
5:53 PM 28.0 °F 17.5 °F 12.0 °F 51% 30.04 in 10.0 mi SE 12.7 mph - N/A   Overcast
6:53 PM 27.0 °F 14.7 °F 12.0 °F 53% 30.00 in 10.0 mi SE 16.1 mph - N/A   Overcast
7:53 PM 28.0 °F 18.1 °F 12.9 °F 53% 30.00 in 10.0 mi ESE 11.5 mph - N/A   Overcast
8:53 PM 28.0 °F 16.5 °F 14.0 °F 56% 29.96 in 10.0 mi ESE 15.0 mph - N/A   Overcast
9:53 PM 28.0 °F 18.1 °F 15.1 °F 58% 29.95 in 10.0 mi ESE 11.5 mph - N/A   Overcast
10:53 PM 27.0 °F 16.1 °F 16.0 °F 63% 29.94 in 10.0 mi SE 12.7 mph - N/A   Overcast
11:53 PM 27.0 °F 15.6 °F 18.0 °F 69% 29.92 in 10.0 mi SE 13.8 mph - N/A   Overcast